Lancaster, OH

2:06 PM EST on February 20, 2017 (GMT -0500)
Fairfield County

Weather History for KLHQ - November, 2013

Change the Weather History Date:

Sunday, November 17, 2013

  Actual Average Record
Temperature  
Mean Temperature 58 °F -  
Max Temperature 62 °F 50 °F 79 °F (1958)
Min Temperature 52 °F 30 °F 15 °F (1999)
Degree Days  
Heating Degree Days 7    
Growing Degree Days 8 (Base 50)    
Moisture  
Dew Point 54 °F    
Average Humidity 84    
Maximum Humidity 100    
Minimum Humidity 59    
Precipitation  
Precipitation 0.90 in - - ()
Sea Level Pressure  
Sea Level Pressure 29.71 in    
Wind  
Wind Speed 17 mph (SSW)    
Max Wind Speed 32 mph    
Max Gust Speed 53 mph    
Visibility 7 miles    
Events Rain , Thunderstorm    
Averages and records for this station are not official NWS values.
T = Trace of Precipitation, MM = Missing Value Source: NWS Daily Summary

Daily Weather History Graph

Daily Weather History Graph

Search for Another Location

Airport or City:

Trip Planner

Search our weather history database for the weather conditions in past years. The results will help you decide how hot, cold, wet, or windy it might be!

Date:

Astronomy

Nov. 17, 2013 Rise Set
Actual Time 7:17 AM EST 5:13 PM EST
Civil Twilight 6:48 AM EST 5:42 PM EST
Nautical Twilight 6:15 AM EST 6:14 PM EST
Astronomical Twilight 5:43 AM EST 6:46 PM EST
Moon 5:29 PM EST (11/17) 7:10 AM EST (11/17)
Length of Visible Light 10h 53m
Length of Day
9h 55m
Full, 100% of the Moon is Illuminated
Nov 17
Full
Nov 25
Last Quarter
Dec 2
New
Dec 9
First Quarter
Dec 17
Full

Hourly Weather History & Observations

Time (EST) Temp. Dew Point Humidity Pressure Visibility Wind Dir Wind Speed Gust Speed Precip Events Conditions
12:53 AM 61.0 °F 50.0 °F 67% 29.94 in 10.0 mi South 12.7 mph 20.7 mph N/A   Overcast
1:53 AM 59.0 °F 51.1 °F 75% 29.94 in 10.0 mi South 13.8 mph - 0.00 in   Overcast
2:53 AM 59.0 °F 51.1 °F 75% 29.91 in 10.0 mi South 15.0 mph 23.0 mph N/A   Scattered Clouds
3:53 AM 59.0 °F 51.1 °F 75% 29.89 in 10.0 mi South 12.7 mph - N/A   Overcast
4:53 AM 59.0 °F 53.1 °F 81% 29.89 in 10.0 mi South 16.1 mph 24.2 mph 0.01 in Rain Light Rain
5:53 AM 57.9 °F 54.0 °F 87% 29.89 in 5.0 mi South 13.8 mph 23.0 mph 0.08 in Rain Rain
6:53 AM 57.9 °F 54.0 °F 87% 29.89 in 10.0 mi South 15.0 mph 27.6 mph 0.07 in Rain Light Rain
7:53 AM 57.9 °F 55.0 °F 90% 29.89 in 6.0 mi South 13.8 mph - 0.08 in Rain Light Rain
8:53 AM 57.9 °F 55.9 °F 93% 29.88 in 5.0 mi SSW 13.8 mph - 0.07 in Rain Light Rain
9:53 AM 59.0 °F 55.9 °F 90% 29.88 in 7.0 mi South 17.3 mph 26.5 mph 0.05 in Rain Light Rain
10:53 AM 59.0 °F 55.9 °F 90% 29.87 in 7.0 mi South 17.3 mph 23.0 mph 0.05 in Rain Light Rain
11:53 AM 57.9 °F 55.0 °F 90% 29.82 in 10.0 mi South 16.1 mph 24.2 mph 0.04 in   Overcast
12:53 PM 59.0 °F 55.9 °F 90% 29.76 in 10.0 mi South 17.3 mph 25.3 mph 0.01 in   Overcast
1:53 PM 61.0 °F 55.9 °F 83% 29.72 in 10.0 mi South 20.7 mph 31.1 mph N/A   Overcast
2:35 PM 60.8 °F 55.4 °F 82% 29.70 in 10.0 mi South 21.9 mph 32.2 mph 0.00 in Rain Light Rain
2:53 PM 60.1 °F 55.9 °F 86% 29.68 in 10.0 mi South 16.1 mph 28.8 mph 0.01 in   Mostly Cloudy
3:53 PM 61.0 °F 55.9 °F 83% 29.64 in 10.0 mi South 23.0 mph 36.8 mph 0.00 in   Overcast
4:53 PM 61.0 °F 57.0 °F 87% 29.62 in 10.0 mi South 18.4 mph 31.1 mph N/A   Overcast
5:08 PM 60.8 °F 57.2 °F 88% 29.62 in 2.0 mi South 20.7 mph 29.9 mph 0.08 in Rain Heavy Rain
5:15 PM 60.8 °F 57.2 °F 88% 29.62 in 3.0 mi South 18.4 mph 29.9 mph 0.09 in Rain Light Rain
5:28 PM 60.8 °F 57.2 °F 88% 29.61 in 10.0 mi South 19.6 mph 27.6 mph 0.09 in Thunderstorm Overcast
5:49 PM 60.8 °F 57.2 °F 88% 29.58 in 3.0 mi SSE 20.7 mph 29.9 mph 0.16 in Rain Heavy Rain
5:53 PM 60.1 °F 57.0 °F 90% 29.58 in 2.5 mi South 20.7 mph 33.4 mph 0.16 in Rain Heavy Rain
6:01 PM 60.8 °F 57.2 °F 88% 29.59 in 8.0 mi South 23.0 mph 35.7 mph 0.01 in Rain Light Rain
6:10 PM 60.8 °F 57.2 °F 88% 29.58 in 10.0 mi South 19.6 mph 31.1 mph 0.01 in   Overcast
6:53 PM 61.0 °F 57.9 °F 90% 29.55 in 6.0 mi South 18.4 mph 27.6 mph 0.05 in Rain Rain
7:00 PM 60.8 °F 57.2 °F 88% 29.54 in 4.0 mi South 20.7 mph 27.6 mph 0.02 in Rain Rain
7:28 PM 62.6 °F 59.0 °F 88% 29.52 in 10.0 mi South 16.1 mph 28.8 mph 0.08 in   Overcast
7:47 PM 62.6 °F 59.0 °F 88% 29.60 in 1.8 mi WSW 32.2 mph 52.9 mph 0.18 in Rain Heavy Rain
7:53 PM 60.1 °F 60.1 °F 100% 29.58 in 1.2 mi SW 19.6 mph 52.9 mph 0.21 in Rain Heavy Rain
7:55 PM 60.8 °F 60.8 °F 100% 29.59 in 1.8 mi SW 19.6 mph 52.9 mph 0.01 in Rain Rain
7:57 PM 60.8 °F 60.8 °F 100% 29.59 in 3.0 mi WSW 17.3 mph 36.8 mph 0.01 in Rain Light Rain
8:53 PM 60.1 °F - N/A% 29.62 in 10.0 mi WSW 11.5 mph - 0.01 in   Overcast
9:08 PM 60.8 °F 53.6 °F 77% 29.65 in 1.8 mi West 25.3 mph 47.2 mph N/A   Haze
9:23 PM 57.2 °F 51.8 °F 82% 29.67 in 2.5 mi West 19.6 mph 39.1 mph N/A   Haze
9:30 PM 57.2 °F 46.4 °F 67% 29.67 in 10.0 mi West 17.3 mph 29.9 mph N/A   Scattered Clouds
9:53 PM 55.9 °F 44.1 °F 64% 29.68 in 10.0 mi West 13.8 mph 24.2 mph N/A   Clear
10:53 PM 54.0 °F 39.9 °F 59% 29.72 in 10.0 mi West 13.8 mph 23.0 mph N/A   Clear
11:53 PM 52.0 °F 39.9 °F 63% 29.75 in 10.0 mi West 12.7 mph - N/A   Clear